Regional Weather Roundup
Issued by NWS Memphis, TN

Home | Current Version | Previous Version | Text Only | Print | Product List | Glossary On
Versions: 1 2 3 4 5 6 7 8 9 10 11 12 13 14 15 16 17 18 19 20 21 22 23 24 25 26 27 28 29 30 31 32 33 34 35 36 37 38 39 40 41 42 43 44 45 46 47 48 49 50
000
ASUS44 KMEG 111110
RWRMEG
MEMPHIS CWA HOURLY WEATHER ROUNDUP
NATIONAL WEATHER SERVICE MEMPHIS TN
500 AM CST SUN DEC 11 2016

...WEST TENNESSEE...

CITY           SKY/WX    TMP DP  RH WIND       PRES   REMARKS
MEMPHIS INTL   CLOUDY    42  18  37 S9        30.21S
NWS MEMPHIS      N/A     42 N/A N/A MISG        N/A
JACKSON        CLOUDY    40  17  39 S10G17    30.23F WCI  33
BOLIVAR        CLOUDY    37  18  44 SE8       30.23F WCI  31
LEXINGTON      CLOUDY    34  16  47 CALM      30.26F
DYERSBURG      CLOUDY    39  18  41 S6G16     30.19F WCI  35
UNION CITY     CLOUDY    39  18  41 S13       30.18F WCI  32
PARIS          CLOUDY    36  16  44 S14       30.21F WCI  27
HUNTINGDON     CLOUDY    39  18  41 SE10      30.22F WCI  32


...EASTERN ARKANSAS...

CITY           SKY/WX    TMP DP  RH WIND       PRES   REMARKS
JONESBORO      CLOUDY    39  26  59 S12       30.16F WCI  32
WEST MEMPHIS   CLOUDY    42  20  41 S14       30.19F
BATESVILLE     CLOUDY    43  23  45 SE8       30.12F
NEWPORT        CLOUDY    41  27  57 S10         N/A
WALNUT RIDGE   CLOUDY    39  25  56 S10       30.14F WCI  32
BLYTHEVILLE    CLOUDY    42  20  41 S15       30.19F
SEARCY         CLOUDY    43  28  55 S9        30.15F
STUTTGART      CLOUDY    45  25  45 S10       30.17F
PINE BLUFF     CLOUDY    46  25  43 S12       30.15F
MONTICELLO     CLOUDY    46  23  40 S8        30.17F


...NORTH MISSISSIPPI...

CITY           SKY/WX    TMP DP  RH WIND       PRES   REMARKS
TUPELO         CLOUDY    26  21  81 CALM      30.30R
OXFORD         CLOUDY    36  16  44 SE10G18   30.24F WCI  28
BATESVILLE     CLOUDY    40  18  41 S3        30.24S
TUNICA         CLOUDY    39  23  52 S9        30.22F WCI  33
CLARKSDALE     CLOUDY    43  23  45 SE14      30.20F
CORINTH        CLOUDY    27  19  74 SE5       30.28F WCI  21
GREENWOOD      CLOUDY    44  16  32 S9        30.23S
COLUMBUS       CLOUDY    24  21  89 CALM      30.30F
STARKVILLE     CLOUDY    30  25  80 S5        30.31S WCI  25
GOLDEN TRIANGL CLOUDY    30  18  59 S6        30.26S WCI  24


...SOUTHEAST MISSOURI...

CITY           SKY/WX    TMP DP  RH WIND       PRES   REMARKS
KENNETT        CLOUDY    41  27  56 S14G22    30.16F
WEST PLAINS    CLOUDY    39  23  52 S15G23    30.01F WCI  31
POPLAR BLUFF   CLOUDY    40  24  53 S13       30.13F WCI  32
CAPE GIRARDEAU CLOUDY    40  20  44 S15       30.14F WCI  32


...NORTHWEST ALABAMA...

CITY           SKY/WX    TMP DP  RH WIND       PRES   REMARKS
MUSCLE SHOALS  CLOUDY    28  19  69 NE3       30.32S


...MIDDLE TENNESSEE...

CITY           SKY/WX    TMP DP  RH WIND       PRES   REMARKS
NASHVILLE      CLOUDY    31  18  58 S6        30.29F WCI  25
CLARKSVILLE    CLOUDY    34  17  50 S5        30.24F WCI  30
COLUMBIA       CLEAR     28  19  69 CALM      30.27F


...WESTERN KENTUCKY...

CITY           SKY/WX    TMP DP  RH WIND       PRES   REMARKS
PADUCAH        CLOUDY    42  15  33 VRB6      30.17F
FORT CAMPBELL  CLOUDY    35  17  46 S7        30.23F WCI  30


...CENTRAL ARKANSAS...

CITY           SKY/WX    TMP DP  RH WIND       PRES   REMARKS
LITTLE ROCK    CLOUDY    42  30  62 SE3       30.14F


SKY/WX REPORTED AS FAIR MEANS FEW OR NO CLOUDS BELOW
12 THOUSAND FEET.




USA.gov is the U.S. government's official web portal to all federal, state and local government web resources and services.